FW6397 Weather Reports


time (UTC)temp
C
wind
direction
speed
KPH
gust
KPH
rain 1hr
cm
rain 24hr
cm
rain mn
cm
humidity
%
barometer
mb
20210927072555 18 352 1.6 6.4 0.00 0.51 0.00 73 1014.4
20210927072054 18 352 1.6 4.8 0.00 0.51 0.00 74 1014.4
20210927071640 19 352 1.6 3.2 0.00 0.51 0.00 72 1014.5
20210927071053 19 352 0.0 3.2 0.00 0.51 0.00 70 1014.6
20210927070553 19 352 0.0 4.8 0.00 0.51 0.00 70 1014.8
20210927070302 19 352 1.6 6.4 0.00 0.56 0.00 70 1014.8
20210927065551 19 352 3.2 6.4 0.00 0.56 0.00 70 1014.6
20210927065051 19 352 1.6 6.4 0.00 0.56 0.00 70 1014.5
20210927064626 19 352 1.6 6.4 0.00 0.56 0.00 70 1014.5
20210927063553 19 352 3.2 8.0 0.00 0.56 0.00 73 1014.5
20210927063107 19 352 3.2 8.0 0.00 0.56 0.00 73 1014.5
20210927062548 19 352 1.6 8.0 0.00 0.56 0.00 74 1014.5
20210927062055 19 352 1.6 6.4 0.00 0.56 0.00 74 1014.7
20210927061630 19 352 1.6 6.4 0.00 0.56 0.00 73 1014.5
20210927061049 19 352 3.2 6.4 0.00 0.56 0.00 73 1014.5
20210927060545 19 352 0.0 4.8 0.00 0.56 0.00 73 1014.5
20210927060047 20 352 1.6 4.8 0.00 0.56 0.56 73 1014.6
20210927055544 20 352 0.0 6.4 0.00 0.56 0.56 72 1014.6
20210927055044 20 352 1.6 6.4 0.00 0.56 0.56 72 1014.7
20210927054558 19 352 0.0 6.4 0.00 0.56 0.56 73 1014.7
20210927054043 20 352 0.0 4.8 0.00 0.56 0.56 72 1014.8
20210927053218 20 352 0.0 8.0 0.00 0.56 0.56 72 1014.7
20210927052543 20 352 3.2 6.4 0.00 0.56 0.56 71 1014.6
20210927052042 20 352 1.6 8.0 0.00 0.56 0.56 71 1014.5
20210927051551 20 352 3.2 9.7 0.00 0.56 0.56 71 1014.5
20210927051043 20 352 4.8 9.7 0.00 0.56 0.56 70 1014.5
20210927050546 20 352 6.4 8.0 0.00 0.56 0.56 70 1014.4
20210927050159 20 352 3.2 6.4 0.00 0.56 0.56 71 1014.5
20210927045541 20 352 0.0 0.0 0.00 0.56 0.56 70 1014.6
20210927045041 20 352 0.0 0.0 0.00 0.56 0.56 69 1014.6
20210927044556 20 352 0.0 0.0 0.00 0.56 0.56 68 1014.7
20210927044040 20 352 0.0 0.0 0.00 0.56 0.56 68 1014.7
20210927043544 20 352 0.0 3.2 0.00 0.56 0.56 69 1014.6
20210927043123 20 352 0.0 3.2 0.00 0.56 0.56 69 1014.6
20210927042540 20 352 0.0 1.6 0.00 0.56 0.56 69 1014.6
20210927042047 20 352 0.0 1.6 0.00 0.56 0.56 69 1014.6
20210927041610 20 352 0.0 1.6 0.00 0.56 0.56 68 1014.5
20210927041040 20 352 0.0 3.2 0.00 0.56 0.56 68 1014.5
20210927040608 20 352 0.0 6.4 0.00 0.56 0.56 67 1014.6
20210927040053 20 352 1.6 6.4 0.00 0.58 0.56 67 1014.5
20210927035539 20 352 1.6 6.4 0.00 0.58 0.56 67 1014.4
20210927035045 20 352 3.2 6.4 0.00 0.58 0.56 66 1014.3
20210927034601 20 352 1.6 6.4 0.00 0.58 0.56 67 1014.4
20210927034040 20 352 3.2 6.4 0.00 0.58 0.56 67 1014.5
20210927033538 20 352 3.2 6.4 0.00 0.58 0.56 67 1014.4
20210927033046 20 352 1.6 6.4 0.00 0.58 0.56 67 1014.6
20210927032544 20 352 0.0 6.4 0.00 0.58 0.56 67 1014.6
20210927032042 20 352 1.6 4.8 0.00 0.58 0.56 67 1014.6
20210927031619 21 352 0.0 3.2 0.00 0.58 0.56 67 1014.5
20210927031042 21 352 0.0 6.4 0.00 0.58 0.56 67 1014.4
20210927030545 21 352 3.2 8.0 0.00 0.58 0.56 67 1014.4
20210927030039 21 352 4.8 9.7 0.00 0.58 0.56 66 1014.3
20210927025538 21 352 6.4 9.7 0.00 0.58 0.56 65 1014.2
20210927025037 21 352 3.2 8.0 0.00 0.58 0.56 64 1014.2
20210927024547 21 352 3.2 6.4 0.00 0.58 0.56 63 1014.4
20210927024037 21 352 3.2 6.4 0.00 0.58 0.56 63 1014.2
20210927023553 21 352 1.6 6.4 0.00 0.58 0.56 62 1014.1
20210927023143 21 352 3.2 6.4 0.00 0.58 0.56 62 1014.1
20210927022543 21 352 3.2 9.7 0.00 0.58 0.56 62 1014.0
20210927022041 21 352 4.8 9.7 0.00 0.58 0.56 61 1013.7
20210927021619 21 352 1.6 4.8 0.00 0.58 0.56 60 1013.8
20210927021040 22 352 0.0 4.8 0.00 0.58 0.56 59 1013.9
20210927020548 22 352 0.0 6.4 0.00 0.58 0.56 59 1013.9
20210927020111 22 352 3.2 6.4 0.00 0.58 0.56 59 1013.8
20210927015536 22 352 3.2 6.4 0.00 0.58 0.56 58 1013.8
20210927015035 22 352 4.8 9.7 0.00 0.58 0.56 58 1013.7
20210927014547 22 352 4.8 9.7 0.00 0.58 0.56 57 1013.6
20210927014049 22 352 4.8 12.9 0.00 0.58 0.56 56 1013.6
20210927013539 22 352 4.8 9.7 0.00 0.58 0.56 55 1013.5
20210927013102 22 352 4.8 9.7 0.00 0.58 0.56 55 1013.4
20210927012538 22 352 4.8 9.7 0.00 0.58 0.56 54 1013.3
20210927012041 22 352 3.2 12.9 0.00 0.58 0.56 53 1013.1
20210927011553 23 352 4.8 12.9 0.00 0.58 0.56 53 1013.0
20210927011040 23 352 3.2 8.0 0.00 0.58 0.56 54 1013.0
20210927010534 23 352 3.2 8.0 0.00 0.58 0.56 53 1013.0
20210927010110 23 352 3.2 12.9 0.00 0.58 0.56 52 1012.9
20210927005539 24 352 4.8 12.9 0.00 0.58 0.56 51 1012.9
20210927005055 24 352 1.6 4.8 0.00 0.58 0.56 48 1013.0
20210927004639 25 352 1.6 8.0 0.00 0.58 0.56 47 1013.0
20210927004035 25 352 3.2 8.0 0.00 0.58 0.56 46 1013.1
20210927003538 25 352 4.8 8.0 0.00 0.58 0.56 46 1013.0
20210927003055 25 352 1.6 6.4 0.00 0.58 0.56 45 1012.9
20210927002536 25 352 1.6 8.0 0.00 0.58 0.56 46 1012.9
20210927002034 25 352 3.2 8.0 0.00 0.58 0.56 46 1013.0
20210927001553 25 352 3.2 9.7 0.00 0.58 0.56 45 1013.0
20210927001040 25 352 3.2 9.7 0.00 0.58 0.56 44 1013.0
20210927000531 25 352 3.2 9.7 0.00 0.58 0.56 46 1013.0
20210927000058 25 352 6.4 12.9 0.00 0.58 0.56 44 1013.0
20210926235530 25 352 3.2 14.5 0.00 0.58 0.56 44 1013.1
20210926235031 25 352 6.4 16.1 0.00 0.58 0.56 44 1013.1
20210926234538 25 352 8.0 16.1 0.00 0.58 0.56 43 1013.1
20210926234030 25 352 8.0 16.1 0.00 0.58 0.56 43 1013.0
20210926233529 25 352 9.7 17.7 0.00 0.58 0.56 43 1013.1
20210926233058 25 352 8.0 24.1 0.00 0.58 0.56 45 1013.2
20210926232532 25 352 11.3 24.1 0.00 0.58 0.56 45 1013.4
20210926232041 25 352 14.5 20.9 0.00 0.58 0.56 44 1013.3
20210926231544 26 352 0.0 6.4 0.00 0.58 0.56 46 1013.3
20210926231037 26 352 1.6 6.4 0.00 0.58 0.56 45 1013.4
20210926230527 26 352 0.0 9.7 0.00 0.58 0.56 46 1013.4
20210926230032 26 352 3.2 12.9 0.00 0.58 0.56 45 1013.5
20210926225527 26 352 4.8 12.9 0.00 0.58 0.56 46 1013.5
20210926225027 26 352 0.0 9.7 0.00 0.58 0.56 45 1013.4
20210926224559 26 352 3.2 14.5 0.00 0.58 0.56 46 1013.4
20210926224026 26 352 4.8 14.5 0.00 0.58 0.56 48 1013.4
20210926223536 26 352 4.8 17.7 0.00 0.58 0.56 47 1013.3
20210926223026 26 352 8.0 17.7 0.00 0.58 0.56 48 1013.4
20210926222525 26 352 3.2 20.9 0.00 0.58 0.56 47 1013.3
20210926222038 26 352 6.4 19.3 0.00 0.58 0.56 47 1013.3
20210926221602 26 352 4.8 17.7 0.00 0.58 0.56 47 1013.2
20210926221033 26 352 4.8 16.1 0.00 0.58 0.56 45 1013.1
20210926220525 26 352 4.8 17.7 0.00 0.58 0.56 46 1013.1
20210926220044 26 352 6.4 17.7 0.00 0.58 0.56 45 1013.1
20210926215531 26 352 11.3 17.7 0.00 0.58 0.56 46 1013.1
20210926215034 26 352 6.4 16.1 0.00 0.58 0.56 47 1013.2
20210926214532 26 352 6.4 16.1 0.00 0.58 0.56 47 1013.2
20210926214022 26 352 9.7 22.5 0.00 0.58 0.56 48 1013.4
20210926213522 26 352 12.9 22.5 0.00 0.58 0.56 47 1013.4
20210926213048 26 352 12.9 22.5 0.00 0.58 0.56 44 1013.4
20210926212520 26 352 6.4 22.5 0.00 0.58 0.56 45 1013.6
20210926212029 26 352 6.4 22.5 0.00 0.58 0.56 46 1013.5
20210926211525 26 352 12.9 25.7 0.00 0.58 0.56 46 1013.5
20210926211019 25 352 11.3 22.5 0.00 0.58 0.56 48 1013.5
20210926210526 26 352 11.3 19.3 0.00 0.58 0.56 47 1013.5
20210926210041 26 352 9.7 25.7 0.00 0.58 0.56 48 1013.5
20210926205518 25 352 9.7 25.7 0.00 0.58 0.56 49 1013.6
20210926205017 25 352 14.5 22.5 0.00 0.58 0.56 51 1013.6
20210926204524 25 352 12.9 20.9 0.00 0.58 0.56 52 1013.6
20210926204017 25 352 9.7 24.1 0.00 0.58 0.56 50 1013.7
20210926203517 25 352 8.0 24.1 0.00 0.58 0.56 49 1013.7
20210926203040 25 352 14.5 22.5 0.00 0.58 0.56 49 1013.7
20210926202524 25 352 12.9 20.9 0.00 0.58 0.56 47 1013.9
20210926202015 25 352 8.0 17.7 0.00 0.58 0.56 51 1014.0
20210926201021 25 352 6.4 20.9 0.00 0.58 0.56 50 1014.2
20210926200514 25 352 9.7 16.1 0.00 0.58 0.56 50 1014.4
20210926200013 25 352 4.8 19.3 0.00 0.58 0.56 52 1014.3
20210926195513 25 352 9.7 19.3 0.00 0.58 0.56 51 1014.3
20210926195016 25 352 8.0 20.9 0.00 0.58 0.56 54 1014.3
20210926194559 25 352 9.7 19.3 0.00 0.58 0.56 56 1014.5
20210926194013 25 352 8.0 14.5 0.00 0.58 0.56 57 1014.5
20210926193513 24 352 4.8 16.1 0.00 0.58 0.56 57 1014.6
20210926193011 23 352 3.2 16.1 0.00 0.58 0.56 59 1014.7
20210926192508 23 347 8.0 16.1 0.00 0.58 0.56 58 1014.9
20210926192021 23 352 4.8 14.5 0.00 0.58 0.56 60 1015.0
20210926191508 23 352 8.0 14.5 0.00 0.58 0.56 59 1014.9
20210926191006 23 352 3.2 8.0 0.00 0.58 0.56 62 1015.0
20210926190505 23 352 0.0 9.7 0.00 0.58 0.56 62 1015.1
20210926190004 23 352 4.8 12.9 0.00 0.58 0.56 62 1015.2
20210926185503 23 352 3.2 12.9 0.00 0.58 0.56 63 1015.2
20210926185006 23 352 3.2 12.9 0.00 0.58 0.56 63 1015.2
20210926184502 22 352 4.8 16.1 0.00 0.58 0.56 64 1015.2
20210926184003 22 352 4.8 16.1 0.00 0.58 0.56 66 1015.2
20210926183502 22 352 3.2 12.9 0.00 0.58 0.56 66 1015.2
20210926183230 22 347 4.8 12.9 0.00 0.58 0.56 67 1015.3
20210926182600 22 352 3.2 12.9 0.00 0.58 0.56 67 1015.5
20210926182101 22 352 4.8 16.1 0.00 0.58 0.56 67 1015.5
20210926181608 22 352 6.4 16.1 0.00 0.58 0.56 68 1015.4
20210926181102 22 352 6.4 16.1 0.00 0.58 0.56 68 1015.4
20210926180600 22 352 9.7 16.1 0.00 0.58 0.56 71 1015.5
20210926180210 22 347 9.7 16.1 0.00 0.58 0.56 69 1015.7
20210926175559 22 352 9.7 16.1 0.00 0.58 0.56 71 1015.7
20210926175059 22 352 11.3 16.1 0.00 0.58 0.56 72 1015.7
20210926174717 22 352 6.4 14.5 0.00 0.58 0.56 69 1015.7
20210926174058 22 352 6.4 12.9 0.00 0.58 0.56 70 1015.7
20210926173558 22 352 1.6 12.9 0.00 0.58 0.56 68 1015.7
20210926173235 22 352 3.2 12.9 0.00 0.58 0.56 68 1015.7
20210926172557 22 352 3.2 12.9 0.00 0.58 0.56 68 1015.6
20210926172056 22 352 4.8 12.9 0.00 0.58 0.56 69 1015.6
20210926171712 22 352 1.6 4.8 0.00 0.58 0.56 67 1015.6
20210926171100 22 352 0.0 4.8 0.00 0.58 0.56 72 1015.5
20210926170605 21 352 1.6 4.8 0.00 0.58 0.56 69 1015.5
20210926170135 21 352 1.6 6.4 0.00 0.58 0.56 71 1015.4
20210926165555 20 352 3.2 8.0 0.00 0.58 0.56 72 1015.4
20210926165053 20 352 4.8 8.0 0.00 0.58 0.56 79 1015.4
20210926164606 20 352 1.6 4.8 0.00 0.58 0.56 82 1015.4
20210926164052 19 352 1.6 4.8 0.00 0.58 0.56 82 1015.3
20210926163552 19 352 1.6 4.8 0.00 0.58 0.56 87 1015.3
20210926163141 19 352 3.2 4.8 0.03 0.58 0.56 86 1015.4
20210926162555 19 352 0.0 3.2 0.03 0.58 0.56 87 1015.4
20210926162050 18 352 0.0 3.2 0.03 0.58 0.56 86 1015.4
20210926161603 18 352 0.0 4.8 0.03 0.58 0.56 88 1015.4
20210926161116 18 352 3.2 4.8 0.05 0.58 0.56 88 1015.4
20210926160550 18 352 1.6 4.8 0.10 0.58 0.56 88 1015.4
20210926160114 18 352 0.0 3.2 0.13 0.58 0.56 88 1015.3
20210926155549 18 352 0.0 4.8 0.18 0.58 0.56 88 1015.3
20210926155100 18 352 0.0 4.8 0.23 0.58 0.56 88 1015.2
20210926154644 17 352 0.0 6.4 0.25 0.58 0.56 89 1015.1
20210926154047 17 352 3.2 8.0 0.28 0.58 0.56 89 1014.9
20210926153547 17 352 3.2 8.0 0.30 0.58 0.56 89 1014.9
20210926153047 17 352 0.0 6.4 0.28 0.56 0.53 88 1015.0
20210926152546 17 352 1.6 6.4 0.30 0.56 0.53 89 1015.2
20210926152058 17 352 3.2 6.4 0.30 0.56 0.53 89 1015.2
20210926151721 17 352 1.6 12.9 0.30 0.56 0.53 89 1015.0
20210926151052 17 352 4.8 12.9 0.25 0.51 0.48 88 1015.0
20210926150545 17 352 4.8 8.0 0.25 0.48 0.46 88 1014.9
20210926150135 17 352 0.0 4.8 0.23 0.46 0.43 88 1014.9
20210926145544 17 352 0.0 9.7 0.18 0.41 0.38 88 1014.9
20210926145043 17 352 3.2 9.7 0.15 0.36 0.33 88 1014.8
20210926144558 17 352 0.0 3.2 0.13 0.33 0.30 89 1014.9
20210926144048 18 352 0.0 4.8 0.10 0.30 0.28 88 1015.0
20210926143542 18 352 1.6 6.4 0.10 0.28 0.25 89 1014.9
20210926143117 18 352 1.6 8.0 0.10 0.28 0.25 89 1014.9
20210926142555 18 352 3.2 9.7 0.08 0.25 0.23 89 1014.9
20210926142107 18 352 6.4 16.1 0.08 0.25 0.23 89 1014.8
20210926141556 18 352 3.2 17.7 0.08 0.25 0.23 89 1014.9
20210926141105 18 352 4.8 17.7 0.08 0.25 0.23 89 1014.8
20210926140540 18 352 6.4 14.5 0.08 0.23 0.20 89 1014.7
20210926140130 18 352 6.4 14.5 0.08 0.23 0.20 89 1014.7
20210926135546 18 352 4.8 19.3 0.08 0.23 0.20 89 1014.7
20210926135047 18 352 9.7 19.3 0.05 0.20 0.18 89 1014.6
20210926134706 18 352 1.6 14.5 0.05 0.20 0.18 89 1014.5
20210926134038 18 352 0.0 6.4 0.08 0.20 0.18 89 1013.9
20210926133549 18 352 1.6 4.8 0.10 0.18 0.15 89 1013.9
20210926133038 18 352 1.6 6.4 0.10 0.18 0.15 89 1013.7
20210926132537 18 352 3.2 6.4 0.10 0.18 0.15 89 1013.7
20210926132037 18 352 3.2 6.4 0.10 0.18 0.15 89 1013.6
20210926131611 18 352 0.0 3.2 0.10 0.18 0.15 88 1013.7
20210926131037 18 352 1.6 3.2 0.10 0.18 0.15 88 1013.7
20210926130537 18 352 0.0 4.8 0.08 0.15 0.13 87 1013.6
20210926130039 18 352 0.0 9.7 0.08 0.15 0.13 86 1013.7
20210926125539 18 352 4.8 9.7 0.08 0.15 0.13 85 1013.5
20210926125040 18 352 4.8 8.0 0.08 0.15 0.13 85 1013.5
20210926124559 18 352 3.2 16.1 0.08 0.15 0.13 85 1013.5
20210926124035 18 352 6.4 16.1 0.05 0.13 0.10 85 1013.5
20210926123534 18 352 8.0 12.9 0.00 0.08 0.05 84 1013.4
20210926123040 19 352 4.8 12.9 0.00 0.08 0.05 83 1013.4
20210926122534 19 352 6.4 16.1 0.00 0.08 0.05 82 1013.4
20210926122034 19 352 8.0 16.1 0.00 0.08 0.05 81 1013.3
20210926121552 19 352 6.4 16.1 0.00 0.08 0.05 81 1013.4
20210926121039 19 352 6.4 17.7 0.00 0.08 0.05 83 1013.4
20210926120533 19 352 8.0 17.7 0.00 0.08 0.05 83 1013.3
20210926120132 19 352 6.4 12.9 0.00 0.08 0.05 83 1013.1
20210926115547 19 352 4.8 9.7 0.00 0.08 0.05 83 1013.2
20210926115104 19 352 4.8 14.5 0.00 0.08 0.05 82 1013.2
20210926114616 19 352 6.4 14.5 0.00 0.08 0.05 84 1013.1
20210926114045 19 352 4.8 14.5 0.00 0.08 0.05 84 1013.1
20210926113537 19 352 6.4 12.9 0.00 0.08 0.05 84 1013.2
20210926113058 18 352 8.0 12.9 0.00 0.08 0.05 84 1013.2
20210926112533 18 352 4.8 12.9 0.00 0.08 0.05 85 1013.1
20210926112038 18 352 6.4 12.9 0.00 0.08 0.05 85 1013.1
20210926111607 18 352 4.8 8.0 0.00 0.08 0.05 87 1013.2
20210926111052 18 352 1.6 6.4 0.00 0.08 0.05 87 1013.3
20210926110541 18 352 3.2 6.4 0.00 0.08 0.05 88 1013.3
20210926110050 18 352 3.2 6.4 0.00 0.08 0.05 88 1013.4
20210926105530 18 352 3.2 6.4 0.00 0.08 0.05 88 1013.3
20210926105036 18 352 1.6 4.8 0.00 0.08 0.05 88 1013.2
20210926104531 18 352 1.6 6.4 0.00 0.08 0.05 88 1013.2
20210926104031 18 352 1.6 6.4 0.00 0.08 0.05 88 1013.2
20210926103540 18 352 0.0 0.0 0.00 0.08 0.05 88 1013.3
20210926103033 18 352 0.0 0.0 0.00 0.08 0.05 88 1013.2
20210926102531 18 352 0.0 0.0 0.00 0.08 0.05 88 1013.2
20210926102028 18 352 0.0 0.0 0.00 0.08 0.05 88 1013.3
20210926101534 18 352 0.0 0.0 0.00 0.08 0.05 88 1013.4
20210926101032 18 352 0.0 0.0 0.00 0.08 0.05 88 1013.4
20210926100527 18 352 0.0 0.0 0.00 0.08 0.05 88 1013.6
20210926100026 18 347 0.0 0.0 0.00 0.08 0.05 87 1013.5
20210926095532 18 352 0.0 0.0 0.00 0.08 0.05 87 1013.5
20210926095024 18 352 0.0 0.0 0.00 0.08 0.05 87 1013.5
20210926094555 18 352 0.0 0.0 0.00 0.08 0.05 87 1013.5
20210926094025 18 352 0.0 0.0 0.00 0.08 0.05 87 1013.7
20210926093534 19 352 0.0 0.0 0.00 0.08 0.05 86 1013.6
20210926093031 19 352 0.0 0.0 0.00 0.08 0.05 86 1013.8
20210926092521 19 352 0.0 0.0 0.00 0.08 0.05 85 1013.7
20210926092023 19 352 0.0 0.0 0.00 0.08 0.05 85 1013.9
20210926091559 19 352 0.0 0.0 0.00 0.08 0.05 85 1013.9
20210926091022 19 352 0.0 0.0 0.00 0.08 0.05 85 1014.0
20210926090528 19 352 0.0 1.6 0.00 0.08 0.05 85 1014.2
20210926090024 19 352 0.0 0.0 0.00 0.08 0.05 86 1014.2
20210926085542 19 352 0.0 0.0 0.00 0.08 0.05 86 1014.2
20210926085016 19 352 0.0 0.0 0.00 0.08 0.05 86 1014.2
20210926084517 19 352 0.0 0.0 0.00 0.08 0.05 85 1014.2
20210926084018 19 352 0.0 0.0 0.00 0.08 0.05 85 1014.2
20210926083516 19 352 0.0 0.0 0.00 0.08 0.05 85 1014.1
20210926083024 19 352 0.0 0.0 0.00 0.08 0.05 85 1014.2
20210926082516 19 352 0.0 3.2 0.00 0.08 0.05 85 1014.4
20210926082014 19 352 0.0 6.4 0.00 0.08 0.05 84 1014.4
20210926081515 19 352 3.2 6.4 0.00 0.08 0.05 83 1014.4
20210926081017 19 352 1.6 6.4 0.00 0.08 0.05 82 1014.3
20210926080517 20 352 1.6 4.8 0.00 0.08 0.05 81 1014.3
20210926080018 20 352 1.6 4.8 0.00 0.08 0.05 78 1014.2
20210926075533 20 352 0.0 6.4 0.00 0.08 0.05 73 1014.1
20210926075011 20 352 1.6 9.7 0.03 0.08 0.05 73 1014.2
20210926074512 20 352 3.2 12.9 0.03 0.08 0.05 74 1014.2
20210926074013 20 352 6.4 12.9 0.03 0.08 0.05 76 1014.3
20210926073510 20 352 3.2 14.5 0.03 0.08 0.05 78 1014.4
20210926073010 20 352 8.0 16.1 0.03 0.08 0.05 78 1014.4